TimeEDT,TemperatureF,Dew PointF,Humidity,Sea Level PressureIn,VisibilityMPH,Wind Direction,Wind SpeedMPH,Gust SpeedMPH,PrecipitationIn,Events,Conditions,WindDirDegrees,DateUTC
12:15 AM,66.2,59.0,78,29.97,10.0,SSW,11.5,-,N/A,,Clear,210,2013-05-16 04:15:00
12:35 AM,66.2,59.0,78,29.97,10.0,SSW,10.4,-,N/A,,Clear,210,2013-05-16 04:35:00
12:55 AM,66.2,59.0,78,29.97,10.0,SW,8.1,-,N/A,,Clear,220,2013-05-16 04:55:00
1:15 AM,66.2,59.0,78,29.97,10.0,SW,6.9,-,N/A,,Clear,230,2013-05-16 05:15:00
1:35 AM,66.2,59.0,78,29.96,10.0,SW,8.1,-,N/A,,Clear,220,2013-05-16 05:35:00
1:55 AM,66.2,59.0,78,29.96,10.0,SW,8.1,-,N/A,,Clear,220,2013-05-16 05:55:00
2:15 AM,66.2,59.0,78,29.96,10.0,SW,9.2,-,N/A,,Clear,230,2013-05-16 06:15:00
2:35 AM,64.4,59.0,83,29.96,10.0,SW,9.2,-,N/A,,Clear,220,2013-05-16 06:35:00
2:55 AM,64.4,59.0,83,29.95,10.0,SW,9.2,-,N/A,,Clear,230,2013-05-16 06:55:00
3:15 AM,64.4,57.2,77,29.94,10.0,SW,9.2,-,N/A,,Clear,230,2013-05-16 07:15:00
3:35 AM,64.4,57.2,77,29.94,10.0,SW,9.2,-,N/A,,Clear,230,2013-05-16 07:35:00
3:55 AM,64.4,57.2,77,29.94,10.0,SW,9.2,-,N/A,,Clear,220,2013-05-16 07:55:00
4:15 AM,64.4,57.2,77,29.94,10.0,SW,9.2,-,N/A,,Clear,230,2013-05-16 08:15:00
4:35 AM,64.4,57.2,77,29.94,10.0,SW,8.1,-,N/A,,Clear,230,2013-05-16 08:35:00
4:55 AM,64.4,57.2,77,29.93,10.0,SW,10.4,-,N/A,,Clear,220,2013-05-16 08:55:00
5:15 AM,64.4,57.2,77,29.94,10.0,SW,9.2,-,N/A,,Clear,220,2013-05-16 09:15:00
5:35 AM,62.6,57.2,82,29.94,10.0,SW,8.1,-,N/A,,Clear,220,2013-05-16 09:35:00
5:55 AM,62.6,57.2,82,29.94,10.0,SW,5.8,-,N/A,,Clear,220,2013-05-16 09:55:00
6:15 AM,62.6,57.2,82,29.95,10.0,SSW,6.9,-,N/A,,Clear,210,2013-05-16 10:15:00
6:35 AM,62.6,57.2,82,29.96,10.0,SW,4.6,-,N/A,,Clear,220,2013-05-16 10:35:00
6:55 AM,62.6,57.2,82,29.96,10.0,SW,5.8,-,N/A,,Clear,230,2013-05-16 10:55:00
7:15 AM,64.4,57.2,77,29.97,10.0,SW,5.8,-,N/A,,Clear,220,2013-05-16 11:15:00
7:35 AM,66.2,59.0,78,29.97,10.0,SSW,6.9,-,N/A,,Clear,210,2013-05-16 11:35:00
7:55 AM,68.0,59.0,73,29.97,10.0,SW,9.2,-,N/A,,Clear,220,2013-05-16 11:55:00
8:15 AM,69.8,60.8,73,29.97,10.0,SW,11.5,-,N/A,,Clear,230,2013-05-16 12:15:00
8:35 AM,71.6,60.8,69,29.98,10.0,SW,9.2,-,N/A,,Clear,230,2013-05-16 12:35:00
8:55 AM,73.4,60.8,65,29.98,10.0,SW,9.2,-,N/A,,Clear,230,2013-05-16 12:55:00
9:15 AM,73.4,60.8,65,29.99,10.0,WSW,11.5,-,N/A,,Clear,240,2013-05-16 13:15:00
9:35 AM,75.2,62.6,65,29.99,10.0,WSW,6.9,-,N/A,,Clear,250,2013-05-16 13:35:00
9:55 AM,77.0,62.6,61,29.99,10.0,SW,9.2,-,N/A,,Clear,230,2013-05-16 13:55:00
10:15 AM,78.8,62.6,57,29.99,10.0,West,6.9,-,N/A,,Clear,270,2013-05-16 14:15:00
10:35 AM,78.8,62.6,57,29.99,10.0,WSW,8.1,-,N/A,,Clear,250,2013-05-16 14:35:00
10:55 AM,80.6,62.6,54,29.99,10.0,WSW,5.8,-,N/A,,Clear,240,2013-05-16 14:55:00
11:15 AM,80.6,62.6,54,29.99,10.0,WSW,10.4,-,N/A,,Clear,240,2013-05-16 15:15:00
11:35 AM,82.4,64.4,54,29.99,10.0,West,5.8,-,N/A,,Clear,260,2013-05-16 15:35:00
11:55 AM,84.2,62.6,48,29.99,10.0,West,8.1,-,N/A,,Clear,260,2013-05-16 15:55:00
12:15 PM,84.2,60.8,45,29.98,10.0,West,8.1,16.1,N/A,,Clear,280,2013-05-16 16:15:00
12:35 PM,86.0,60.8,43,29.98,10.0,West,6.9,-,N/A,,Clear,280,2013-05-16 16:35:00
12:55 PM,86.0,59.0,40,29.97,10.0,WNW,6.9,-,N/A,,Clear,300,2013-05-16 16:55:00
1:15 PM,87.8,59.0,38,29.97,10.0,West,8.1,-,N/A,,Clear,280,2013-05-16 17:15:00
1:35 PM,87.8,59.0,38,29.97,10.0,West,6.9,-,N/A,,Clear,280,2013-05-16 17:35:00
1:55 PM,89.6,59.0,36,29.96,10.0,WSW,11.5,16.1,N/A,,Clear,250,2013-05-16 17:55:00
2:15 PM,89.6,57.2,33,29.96,10.0,West,10.4,-,N/A,,Clear,260,2013-05-16 18:15:00
2:35 PM,89.6,59.0,36,29.95,10.0,WSW,5.8,-,N/A,,Clear,250,2013-05-16 18:35:00
3:15 PM,89.6,57.2,33,29.94,10.0,SW,11.5,-,N/A,,Clear,220,2013-05-16 19:15:00
3:35 PM,91.4,57.2,31,29.94,10.0,WSW,9.2,-,N/A,,Clear,250,2013-05-16 19:35:00
3:55 PM,89.6,57.2,33,29.93,10.0,SW,9.2,18.4,N/A,,Clear,230,2013-05-16 19:55:00
4:15 PM,89.6,55.4,31,29.93,10.0,WSW,10.4,17.3,N/A,,Clear,240,2013-05-16 20:15:00
4:35 PM,89.6,57.2,33,29.93,10.0,WSW,12.7,18.4,N/A,,Clear,240,2013-05-16 20:35:00
4:55 PM,87.8,57.2,35,29.93,10.0,WSW,9.2,18.4,N/A,,Clear,250,2013-05-16 20:55:00
5:15 PM,87.8,55.4,33,29.93,10.0,WSW,9.2,19.6,N/A,,Clear,240,2013-05-16 21:15:00
5:35 PM,86.0,57.2,37,29.93,10.0,SW,9.2,-,N/A,,Clear,230,2013-05-16 21:35:00
6:15 PM,84.2,57.2,40,29.93,10.0,WSW,10.4,16.1,N/A,,Clear,240,2013-05-16 22:15:00
6:35 PM,82.4,57.2,42,29.93,10.0,WSW,6.9,-,N/A,,Clear,240,2013-05-16 22:35:00
6:55 PM,82.4,57.2,42,29.93,10.0,WSW,6.9,-,N/A,,Clear,240,2013-05-16 22:55:00
7:15 PM,82.4,57.2,42,29.94,10.0,SW,6.9,-,N/A,,Clear,230,2013-05-16 23:15:00
7:35 PM,80.6,59.0,48,29.95,10.0,WSW,6.9,-,N/A,,Clear,240,2013-05-16 23:35:00
7:55 PM,78.8,57.2,47,29.96,10.0,WSW,6.9,-,N/A,,Clear,240,2013-05-16 23:55:00
8:15 PM,77.0,57.2,50,29.96,10.0,SW,6.9,-,N/A,,Clear,230,2013-05-17 00:15:00
8:35 PM,75.2,59.0,57,29.96,10.0,SW,4.6,-,N/A,,Clear,230,2013-05-17 00:35:00
8:55 PM,73.4,59.0,61,29.97,10.0,SSW,6.9,-,N/A,,Clear,210,2013-05-17 00:55:00
9:15 PM,73.4,60.8,65,29.98,10.0,SW,5.8,-,N/A,,Clear,220,2013-05-17 01:15:00
9:35 PM,71.6,60.8,69,29.99,10.0,SW,6.9,-,N/A,,Clear,220,2013-05-17 01:35:00
9:55 PM,73.4,62.6,69,30.01,10.0,WSW,6.9,-,N/A,,Clear,240,2013-05-17 01:55:00
10:15 PM,73.4,62.6,69,30.01,10.0,WSW,5.8,-,N/A,,Clear,240,2013-05-17 02:15:00
10:35 PM,71.6,62.6,73,30.02,10.0,SW,5.8,-,N/A,,Clear,230,2013-05-17 02:35:00
10:55 PM,71.6,62.6,73,30.01,10.0,SW,5.8,-,N/A,,Clear,230,2013-05-17 02:55:00
11:15 PM,71.6,62.6,73,30.01,10.0,SW,4.6,-,N/A,,Clear,230,2013-05-17 03:15:00
11:35 PM,71.6,62.6,73,30.01,10.0,SW,5.8,-,N/A,,Clear,230,2013-05-17 03:35:00
11:55 PM,71.6,62.6,73,30.01,10.0,SW,6.9,-,N/A,,Clear,230,2013-05-17 03:55:00